This demonstration page uses our WeatherBlox Daily Observations layout. Learn more.

Left ArrowRight Arrow

Hourly Observations for June 17, 2015

Temp ( °F °C ) Dew Point ( °F °C ) Humidity (%) Winds ( mph kmh ) Pressure ( in mb ) Visibility ( mi km ) Precip ( " mm )
12:51 am 00:51 Clear 78 25.6 50 10 37 37 E 9 15 29.79 1009 10 16 0.00 0.00
1:51 am 01:51 Clear 76 24.4 50 10 40 40 Calm 29.79 1009 10 16 0.00 0.00
2:51 am 02:51 Clear 72 22.2 49 9.4 44 44 WNW 3 6 29.80 1009 10 16 0.00 0.00
3:51 am 03:51 Clear 71 21.7 49 9.4 46 46 N 7 11 29.82 1010 10 16 0.00 0.00
4:51 am 04:51 Clear 69 20.6 48 8.9 47 47 SE 5 7 29.83 1010 10 16 0.00 0.00
5:51 am 05:51 Sunny 76 24.4 49 9.4 39 39 E 9 15 29.85 1011 10 16 0.00 0.00
6:51 am 06:51 Sunny 79 26.1 49 9.4 35 35 SSE 9 15 29.85 1011 10 16 0.00 0.00
7:51 am 07:51 Sunny 82 27.8 50 10 33 33 SSE 8 13 29.86 1011 10 16 0.00 0.00
8:51 am 08:51 Sunny 87 30.6 48 8.9 26 26 Calm 29.84 1011 10 16 0.00 0.00
9:51 am 09:51 undefined N/A N/A N/A undefined N/A N/A N/A 0.00 0.00
10:51 am 10:51 undefined N/A N/A N/A undefined N/A N/A N/A 0.00 0.00
11:51 am 11:51 undefined N/A N/A N/A undefined N/A N/A N/A 0.00 0.00
12:51 pm 12:51 Sunny 102 38.9 42 5.6 13 13 VRB 3 6 29.76 1008 10 16 0.00 0.00
1:51 pm 13:51 Sunny 104 40 35 1.7 9 9 W 10 17 29.72 1007 10 16 0.00 0.00
2:51 pm 14:51 Sunny 106 41.1 31 -0.6 7 7 W 13 20 29.70 1006 10 16 0.00 0.00
3:51 pm 15:51 Sunny 107 41.7 29 -1.7 6 6 WNW 15 24 29.66 1004 10 16 0.00 0.00
4:51 pm 16:51 Sunny 106 41.1 27 -2.8 6 6 NW 15 24 29.64 1004 10 16 0.00 0.00
5:51 pm 17:51 Sunny 105 40.6 28 -2.2 7 7 WNW 13 20 29.63 1004 10 16 0.00 0.00
6:51 pm 18:51 Sunny 102 38.9 30 -1.1 8 8 WNW 12 19 29.64 1004 10 16 0.00 0.00
7:51 pm 19:51 Clear 96 35.6 30 -1.1 10 10 W 16 26 29.67 1005 10 16 0.00 0.00
8:51 pm 20:51 Clear 91 32.8 30 -1.1 11 11 NW 10 17 29.69 1005 10 16 0.00 0.00
9:51 pm 21:51 Clear 90 32.2 29 -1.7 11 11 NNW 12 19 29.68 1005 10 16 0.00 0.00
10:51 pm 22:51 Clear 88 31.1 29 -1.7 12 12 NNW 10 17 29.68 1005 10 16 0.00 0.00
11:51 pm 23:51 Clear 86 30 29 -1.7 13 13 NNW 9 15 29.71 1006 10 16 0.00 0.00

Powered by AerisWeather